FW9909 Weather Reports


Display with metric or nautical units.
time (UTC)temp
F
wind
direction
speed
MPH
gust
MPH
rain 1hr
in
rain 24hr
in
rain mn
in
humidity
%
barometer
mb
20260509114532 52 64 2.0 4.0 0.00 0.02 0.00 98 1010.1
20260509113531 51 70 2.0 4.0 0.00 0.02 0.00 98 1010.0
20260509112528 51 78 2.0 4.0 0.00 0.02 0.00 98 1010.0
20260509111527 51 71 2.0 4.0 0.00 0.02 0.00 98 1009.9
20260509110525 50 52 3.0 4.0 0.00 0.02 0.00 98 1009.9
20260509105523 51 75 1.0 3.0 0.00 0.02 0.00 98 1009.9
20260509104521 50 49 3.0 5.0 0.00 0.02 0.00 97 1009.9
20260509103519 51 85 2.0 4.0 0.00 0.02 0.00 97 1009.9
20260509102518 51 98 2.0 4.0 0.00 0.02 0.00 97 1009.9
20260509101536 51 86 2.0 3.0 0.00 0.02 0.00 97 1009.8
20260509100534 51 46 3.0 5.0 0.00 0.02 0.00 97 1009.8
20260509095552 52 69 2.0 4.0 0.00 0.02 0.00 97 1009.8
20260509094530 52 54 2.0 4.0 0.00 0.02 0.00 97 1010.0
20260509093528 52 113 2.0 4.0 0.00 0.02 0.00 97 1010.0
20260509092526 52 138 1.0 4.0 0.00 0.02 0.00 97 1010.0
20260509091524 52 24 2.0 5.0 0.00 0.02 0.00 96 1010.0
20260509090523 53 81 2.0 5.0 0.00 0.02 0.00 97 1009.9
20260509085521 53 70 0.0 1.0 0.00 0.02 0.00 97 1009.9
20260509084539 53 69 1.0 2.0 0.00 0.02 0.00 97 1009.8
20260509083517 53 58 2.0 3.0 0.00 0.02 0.00 97 1009.8
20260509082515 54 59 2.0 3.0 0.00 0.02 0.00 97 1009.7
20260509081533 54 59 2.0 3.0 0.00 0.02 0.00 97 1009.6
20260509080551 54 68 1.0 3.0 0.00 0.02 0.00 97 1009.7
20260509075530 54 58 2.0 3.0 0.00 0.02 0.00 97 1009.8
20260509074528 54 60 2.0 2.0 0.00 0.02 0.00 96 1009.8
20260509073526 53 57 2.0 3.0 0.00 0.02 0.00 96 1009.9
20260509072524 54 77 0.0 2.0 0.00 0.02 0.00 96 1009.8
20260509071522 54 62 1.0 2.0 0.00 0.02 0.00 96 1009.8
20260509070520 54 60 2.0 2.0 0.00 0.02 0.00 95 1009.9
20260509065518 55 70 2.0 2.0 0.00 0.02 0.00 95 1009.8
20260509064517 55 69 1.0 2.0 0.00 0.02 0.00 95 1009.9
20260509063555 55 0.0 1.0 0.00 0.02 0.00 95 1009.8
20260509062533 55 77 1.0 2.0 0.00 0.02 0.00 95 1009.9
20260509061551 56 70 0.0 2.0 0.00 0.02 0.00 94 1010.0
20260509060549 56 60 2.0 3.0 0.00 0.02 0.00 94 1010.1
20260509055527 56 58 2.0 2.0 0.00 0.02 0.00 94 1010.1
20260509054525 57 52 2.0 3.0 0.00 0.02 0.00 93 1010.1
20260509053523 57 54 2.0 2.0 0.00 0.02 0.00 92 1010.2
20260509052522 57 59 1.0 2.0 0.00 0.02 0.00 91 1010.2
20260509051520 58 55 2.0 3.0 0.00 0.02 0.00 90 1010.1
20260509050538 58 61 1.0 2.0 0.00 0.02 0.00 89 1009.9
20260509045516 59 72 1.0 2.0 0.00 0.02 0.02 88 1009.9
20260509044534 59 49 1.0 2.0 0.00 0.02 0.02 88 1009.8
20260509043532 59 61 1.0 2.0 0.00 0.02 0.02 87 1009.9
20260509042531 60 0.0 1.0 0.00 0.02 0.02 85 1009.9
20260509041529 61 51 1.0 2.0 0.00 0.02 0.02 83 1009.8
20260509040527 62 59 1.0 2.0 0.00 0.02 0.02 81 1009.8
20260509035525 63 64 2.0 3.0 0.00 0.02 0.02 80 1009.7
20260509034523 63 61 4.0 7.0 0.00 0.02 0.02 80 1009.9
20260509033521 63 69 4.0 8.0 0.00 0.02 0.02 79 1010.2
20260509032519 64 57 4.0 7.0 0.00 0.02 0.02 76 1009.9
20260509031538 65 65 4.0 7.0 0.00 0.02 0.02 72 1009.9
20260509030516 65 53 3.0 6.0 0.00 0.02 0.02 69 1009.7
20260509025534 65 37 3.0 7.0 0.00 0.02 0.02 68 1009.4
20260509024532 66 42 3.0 6.0 0.00 0.02 0.02 66 1009.1
20260509023530 66 34 4.0 12.0 0.00 0.02 0.02 63 1008.8
20260509022528 66 57 2.0 6.0 0.00 0.02 0.02 62 1008.4
20260509021526 66 30 4.0 6.0 0.00 0.02 0.02 60 1007.9
20260509020525 66 232 3.0 7.0 0.00 0.02 0.02 60 1007.3
20260509015523 64 228 2.0 8.0 0.00 0.02 0.02 65 1007.2
20260509014521 64 237 1.0 3.0 0.00 0.02 0.02 67 1007.1
20260509013519 64 257 1.0 3.0 0.00 0.02 0.02 67 1006.9
20260509012517 64 168 1.0 2.0 0.00 0.02 0.02 68 1006.7
20260509011515 64 158 1.0 4.0 0.00 0.02 0.02 69 1006.5
20260509010533 64 244 0.0 2.0 0.00 0.02 0.02 69 1006.8
20260509005532 64 130 1.0 2.0 0.00 0.02 0.02 68 1007.1
20260509003528 64 130 1.0 2.0 0.00 0.02 0.02 71 1007.1
20260509002546 65 82 2.0 2.0 0.01 0.02 0.02 67 1007.1
20260509001524 65 60 0.0 2.0 0.02 0.02 0.02 66 1006.9
20260509000522 65 234 0.0 2.0 0.02 0.02 0.02 66 1006.9
20260508235520 65 193 2.0 5.0 0.02 0.02 0.02 66 1006.9
20260508234538 65 228 2.0 4.0 0.02 0.02 0.02 67 1007.4
20260508233516 66 238 2.0 4.0 0.02 0.02 0.02 63 1008.0
20260508232555 70 243 6.0 15.0 0.01 0.01 0.01 52 1009.0
20260508231533 71 253 1.0 4.0 0.00 0.00 0.00 52 1008.8
20260508230531 72 35 1.0 4.0 0.00 0.00 0.00 50 1008.5
20260508225529 73 321 1.0 2.0 0.00 0.00 0.00 48 1008.5
20260508224527 74 264 2.0 4.0 0.00 0.00 0.00 44 1008.4
20260508223525 75 233 2.0 6.0 0.00 0.00 0.00 43 1008.3
20260508222543 75 242 2.0 6.0 0.00 0.00 0.00 43 1008.5
20260508221521 75 239 3.0 6.0 0.00 0.00 0.00 42 1008.1
20260508220540 76 245 3.0 8.0 0.00 0.00 0.00 41 1008.0
20260508215518 77 259 3.0 8.0 0.00 0.00 0.00 41 1007.8
20260508214516 78 248 6.0 15.0 0.00 0.00 0.00 39 1007.6
20260508213534 79 231 5.0 13.0 0.00 0.00 0.00 41 1007.7
20260508212532 79 241 5.0 9.0 0.00 0.00 0.00 43 1007.7
20260508211530 79 258 5.0 9.0 0.00 0.00 0.00 42 1007.8
20260508210528 78 241 4.0 9.0 0.00 0.00 0.00 43 1008.1
20260508205527 78 250 6.0 10.0 0.00 0.00 0.00 39 1008.3
20260508204525 78 241 5.0 11.0 0.00 0.00 0.00 38 1008.4
20260508203543 78 223 5.0 10.0 0.00 0.00 0.00 40 1008.5
20260508202521 78 234 5.0 10.0 0.00 0.00 0.00 40 1008.9
20260508201519 77 229 5.0 10.0 0.00 0.00 0.00 44 1009.0
20260508200538 78 253 5.0 11.0 0.00 0.00 0.00 43 1009.1
20260508195515 77 241 3.0 6.0 0.00 0.00 0.00 48 1009.3
20260508194533 77 259 5.0 8.0 0.00 0.00 0.00 46 1009.7
20260508193532 76 264 3.0 7.0 0.00 0.00 0.00 47 1009.8
20260508192530 76 230 5.0 8.0 0.00 0.00 0.00 47 1009.9
20260508191528 76 250 3.0 5.0 0.00 0.00 0.00 51 1009.9
20260508190526 76 248 5.0 9.0 0.00 0.00 0.00 49 1010.1
20260508185524 75 254 3.0 6.0 0.00 0.00 0.00 49 1010.3
20260508184523 75 246 3.0 7.0 0.00 0.00 0.00 51 1010.3
20260508183521 74 243 5.0 9.0 0.00 0.00 0.00 50 1010.4
20260508182519 75 221 4.0 8.0 0.00 0.00 0.00 49 1010.7
20260508181517 74 242 4.0 9.0 0.00 0.00 0.00 49 1010.7
20260508180535 74 249 5.0 10.0 0.00 0.00 0.00 49 1011.1
20260508175533 74 234 5.0 10.0 0.00 0.00 0.00 51 1011.2
20260508174551 73 236 6.0 13.0 0.00 0.00 0.00 49 1011.5
20260508173549 72 248 5.0 11.0 0.00 0.00 0.00 50 1011.7
20260508172528 72 259 5.0 12.0 0.00 0.00 0.00 52 1011.7
20260508171526 72 240 5.0 10.0 0.00 0.00 0.00 50 1011.9
20260508170524 72 242 5.0 9.0 0.00 0.00 0.00 49 1012.0
20260508165522 72 232 4.0 11.0 0.00 0.00 0.00 50 1012.3
20260508164520 72 263 5.0 12.0 0.00 0.00 0.00 53 1012.4
20260508163518 71 241 5.0 12.0 0.00 0.00 0.00 53 1012.3
20260508162537 70 233 4.0 7.0 0.00 0.00 0.00 58 1012.5
20260508161535 69 239 6.0 13.0 0.00 0.00 0.00 56 1012.5
20260508160533 69 248 3.0 8.0 0.00 0.00 0.00 58 1012.7
20260508155551 69 233 4.0 9.0 0.00 0.00 0.00 59 1012.8
20260508154529 68 232 4.0 8.0 0.00 0.00 0.00 59 1012.9
20260508153527 67 256 4.0 9.0 0.00 0.00 0.00 59 1013.1
20260508152525 66 241 4.0 10.0 0.00 0.00 0.00 60 1013.3
20260508151543 65 247 5.0 10.0 0.00 0.00 0.00 61 1013.3
20260508150522 64 237 4.0 9.0 0.00 0.00 0.00 62 1013.1
20260508145520 63 238 5.0 10.0 0.00 0.00 0.00 63 1013.4
20260508144538 63 229 5.0 12.0 0.00 0.00 0.00 63 1013.5
20260508143516 63 246 6.0 14.0 0.00 0.00 0.00 63 1013.6
20260508142555 62 252 6.0 10.0 0.00 0.00 0.00 63 1013.7
20260508141552 61 249 5.0 10.0 0.00 0.00 0.00 64 1013.6
20260508140530 60 231 6.0 12.0 0.00 0.00 0.00 64 1013.5
20260508135529 60 228 6.0 10.0 0.00 0.00 0.00 64 1013.8
20260508134527 60 229 6.0 12.0 0.00 0.00 0.00 65 1013.6
20260508133525 59 240 6.0 10.0 0.00 0.00 0.00 66 1013.6
20260508132523 58 227 3.0 7.0 0.00 0.00 0.00 69 1013.6
20260508131541 57 230 3.0 8.0 0.00 0.00 0.00 69 1013.6
20260508130519 56 225 5.0 10.0 0.00 0.00 0.00 70 1013.8
20260508125618 55 230 4.0 8.0 0.00 0.00 0.00 71 1013.6
20260508124516 54 202 4.0 7.0 0.00 0.00 0.00 73 1013.4
20260508123534 54 221 5.0 9.0 0.00 0.00 0.00 74 1013.3
20260508122532 52 219 4.0 9.0 0.00 0.00 0.00 76 1013.3
20260508121530 51 201 4.0 6.0 0.00 0.00 0.00 78 1013.3
20260508120528 51 189 5.0 11.0 0.00 0.00 0.00 78 1013.2
20260508115526 51 197 4.0 8.0 0.00 0.00 0.00 79 1013.2